User: anonymous   Login
Location: Fiddletown
(38.4917°N, 120.6633°W)
Time: 13:49:07
(UTC-07:00)
Language:

Envisat - Orbit

View from above orbital plane
View from above orbital plane
View from above satellite
View from above satellite

Ground track
Ground track

The orbit data is extracted from the following two-line orbital elements,

1 27386U 02009A   15108.23903367  .00000103  00000-0  48316-4 0  9995
2 27386 098.3396 170.4459 0001082 077.5456 282.5856 14.37804719687417
Epoch (UTC): 18 April 2015 05:44:12
Eccentricity: 0.0001082
inclination: 98.3396°
perigee height: 765 km
apogee height: 766 km
right ascension of ascending node: 170.4459°
argument of perigee: 77.5456°
revolutions per day: 14.37804719
mean anomaly at epoch: 282.5856°
orbit number at epoch: 68741

The dashed part of the orbit path shows where the satellite is in the earth's shadow,  

DLR